Temperature
15 15 15 15 14 14 14 14 13 13 13 13 13 13 13 13 13 13 13 13 13 12 12 12 12 12 12 12 12 12 12 12 12 12 11 11 11 11 11 11 11 11 11
15 15 14 14 14 14 13 13 13 13 13 13 13 12 12 12 12 12 12 12 12 12 12 12 12 12 12 12 12 12 12 11 11 11 11 11 11 11 11 11 11 11 11
15 14 14 14 13 13 13 13 13 13 13 13 12 12 12 12 12 12 12 12 12 12 12 12 12 12 12 12 12 12 12 11 11 11 11 11 11 11 11 11 10 10 11
15 14 14 13 13 13 13 12 12 12 12 12 12 12 12 12 12 12 12 12 12 12 12 12 12 12 12 12 12 12 11 11 11 11 11 11 11 10 10 10 10 10 10
14 14 14 13 13 13 12 12 12 12 12 12 11 12 12 12 12 12 11 11 11 11 11 11 11 11 11 11 11 11 11 11 11 10 10 10 10 10 10 10 10 10 10
14 14 13 13 13 13 12 12 12 12 11 11 11 11 11 11 11 11 11 11 11 11 11 11 11 11 11 11 11 11 11 10 10 10 10 10 10 10 10 10 10 9 9
13 13 13 12 12 12 12 12 11 11 11 11 11 11 11 11 11 11 11 11 11 11 10 10 10 10 11 11 10 11 10 10 10 10 10 10 10 10 10 10 9 9 9
13 13 12 12 12 12 11 11 11 11 11 11 11 11 11 11 11 11 10 10 10 10 10 10 10 10 10 10 10 10 10 10 10 10 10 9 9 9 9 9 9 9 9
13 12 12 12 11 11 11 11 11 10 10 10 10 10 10 10 10 10 10 10 10 10 10 10 10 10 10 10 10 10 10 10 10 9 9 9 9 9 9 9 9 9 9
12 12 12 11 11 11 11 11 10 10 10 9 9 9 9 10 9 10 9 9 9 9 9 9 9 9 10 10 10 9 9 9 9 9 9 9 9 9 9 9 9 9 9
12 11 11 11 11 10 10 10 10 10 9 9 9 9 9 9 9 9 9 9 9 9 9 9 9 9 9 9 9 9 9 9 9 9 9 9 9 8 8 8 8 8 8
11 11 11 10 10 10 10 10 9 9 9 9 8 8 8 8 9 9 9 8 8 8 8 8 8 8 9 9 9 9 8 8 8 8 8 8 8 8 8 8 8 8 8
11 10 10 10 10 9 9 9 9 9 8 8 8 8 8 8 8 8 8 8 8 8 8 8 8 8 8 8 8 8 8 8 8 7 7 7 7 7 7 7 8 8 8
10 10 9 9 9 9 9 8 8 8 8 8 7 7 7 7 7 7 7 7 7 7 7 7 7 8 8 7 7 7 7 7 7 7 7 7 7 7 7 7 7 7 7
10 9 9 9 8 8 8 8 8 8 8 7 7 7 7 7 7 7 7 7 7 7 7 7 7 7 7 7 7 7 7 7 6 6 6 6 6 6 6 6 6 6 6
9 9 8 8 8 8 7 7 7 7 7 7 7 7 6 6 6 6 6 6 6 6 6 6 6 6 6 6 6 6 6 6 6 6 6 6 6 6 6 6 5 5 6
9 8 8 8 7 7 7 7 7 6 6 6 6 6 6 6 6 6 6 6 5 6 6 6 5 5 5 5 5 5 5 5 5 5 5 5 5 5 5 5 5 5 5
8 8 8 7 7 7 7 6 6 6 6 6 6 6 6 6 5 5 5 5 5 5 5 5 5 5 5 5 5 5 5 5 5 5 5 4 4 4 4 4 4 4 4
7 7 7 7 7 6 6 6 6 6 6 6 5 5 5 5 5 5 5 5 4 4 4 4 4 4 4 4 4 4 4 4 4 4 4 4 4 4 3 3 3 3 3
7 7 6 6 6 6 6 5 5 5 5 5 5 5 5 4 4 4 4 4 4 4 4 4 3 3 3 3 4 4 3 3 3 3 3 3 3 3 3 3 3 3 3
6 6 6 6 5 5 5 5 5 5 4 4 4 4 4 4 4 3 3 3 3 3 3 3 3 3 3 3 3 3 3 3 3 3 3 2 2 2 2 2 2 2 2
6 5 5 5 5 4 4 4 4 4 4 4 4 3 3 3 3 3 3 3 3 2 2 2 2 2 2 2 2 2 2 2 2 2 2 2 2 2 2 2 2 2 2
5 5 4 4 4 4 4 4 3 3 3 3 3 3 3 3 3 2 2 2 2 2 2 2 2 2 2 2 2 2 1 1 1 1 1 1 1 1 1 1 1 1 1
5 4 4 4 4 4 3 3 3 3 2 2 2 2 2 2 2 2 2 2 2 2 1 1 1 1 1 1 1 1 1 1 1 1 1 1 1 1 1 1 1 1 1
4 4 4 3 3 3 3 3 2 2 2 2 2 2 1 1 1 1 1 1 1 1 1 1 1 1 1 1 1 1 1 0 0 0 0 0 0 0 0 0 0 0 0
3 3 3 3 3 3 2 2 2 2 1 1 1 1 1 1 1 0 0 0 0 0 0 0 0 0 0 0 0 0 0 0 0 0 -0 -0 -0 -1 -1 -1 -1 -1 -1
Wind_Speed
2 2 2 1 1 1 1 1 1 1 1 1 1 1 1 1 1 1 1 2 2 2 2 2 1 1 1 1 0 0 0 1 1 1 1 0 0 1 1 1 2 3 3
2 2 2 1 1 1 1 1 1 1 1 1 1 1 1 1 1 1 2 2 2 2 2 1 1 1 1 1 1 1 1 1 2 1 1 1 1 1 0 0 1 2 3
2 2 2 2 1 1 1 1 0 1 1 1 1 1 1 1 1 1 1 2 2 2 2 2 1 1 1 0 1 1 1 1 1 1 1 1 1 0 0 1 1 1 2
2 2 2 2 1 1 1 0 1 1 1 1 1 1 1 1 1 2 1 1 2 2 2 2 1 2 2 1 1 1 1 1 0 1 1 1 1 1 0 0 1 1 1
2 2 2 1 1 1 1 0 0 1 2 1 1 1 1 1 2 3 2 2 2 2 2 1 1 1 1 1 1 1 1 1 0 1 1 1 1 0 1 1 1 2 2
2 2 2 1 1 1 1 1 0 1 1 1 1 0 0 1 3 4 3 2 2 1 1 1 1 2 1 1 1 1 2 2 2 1 1 2 2 2 1 1 1 1 2
2 2 1 1 1 1 1 1 1 1 1 1 1 0 0 1 2 4 5 3 2 2 1 2 2 1 1 1 1 2 2 3 3 3 3 3 2 2 2 2 2 2 3
2 2 2 1 1 1 1 1 2 1 1 1 1 1 1 1 2 3 5 4 2 2 2 1 1 1 1 1 1 1 2 2 3 3 4 4 3 3 3 3 3 2 2
2 1 2 2 1 1 1 2 1 1 1 2 2 2 1 1 2 3 4 3 2 2 2 1 1 1 2 1 1 1 1 2 3 3 3 3 3 3 2 1 1 1 2
1 1 1 2 2 2 2 2 1 1 2 2 1 1 2 1 2 3 4 2 2 2 2 2 2 2 1 1 1 2 2 2 1 1 2 3 2 3 3 3 3 2 2
1 1 1 1 1 1 1 1 1 1 1 2 2 2 1 1 2 2 3 2 2 2 2 2 2 2 2 3 3 2 3 3 2 2 2 2 2 2 2 3 3 3 3
1 1 1 1 0 0 0 1 1 1 1 2 2 2 1 0 1 2 3 4 5 3 2 1 1 3 3 4 4 4 4 2 2 2 2 2 2 2 2 3 3 3 4
1 1 1 1 1 0 0 1 1 1 1 1 1 1 1 0 0 1 2 4 5 3 2 2 3 4 4 4 5 5 3 1 2 2 3 3 3 3 2 2 3 3 4
1 1 1 1 0 0 0 1 1 1 1 1 1 1 2 2 1 1 2 3 3 3 3 3 4 5 4 3 3 3 2 2 2 3 3 2 2 2 2 2 2 2 2
1 1 1 0 1 0 1 1 1 1 1 1 1 1 1 2 2 3 3 3 2 2 2 1 1 1 1 2 1 1 1 1 2 2 2 2 2 2 3 2 2 2 3
1 1 1 1 1 1 1 1 3 1 1 1 1 1 2 1 1 2 4 4 4 4 2 2 2 1 1 1 1 1 1 2 2 2 2 2 2 3 3 2 2 3 4
1 1 1 1 1 1 1 1 0 2 3 2 2 1 1 1 1 2 3 4 4 3 1 2 2 2 2 1 1 1 1 2 2 2 2 2 2 2 2 3 3 3 4
1 1 0 1 1 1 1 1 1 1 1 2 2 2 2 2 2 3 3 2 2 2 2 2 2 2 1 1 1 1 1 1 1 1 1 1 2 2 3 3 3 4 4
1 0 0 0 1 1 1 1 1 2 1 1 1 2 2 2 2 3 2 1 2 2 2 2 2 1 1 1 1 1 1 1 1 1 1 2 2 2 3 3 4 5 5
1 1 0 0 0 1 1 1 1 1 1 1 1 1 1 1 1 1 1 2 2 2 1 1 1 2 1 1 1 1 1 1 1 1 2 2 3 3 4 4 4 4 4
0 0 1 1 1 1 1 1 1 1 1 1 1 2 1 2 2 2 1 2 2 2 2 1 1 1 1 1 2 2 2 2 1 2 2 3 3 3 3 4 4 5 4
0 0 0 1 1 1 1 1 1 1 1 2 2 2 1 2 2 2 1 2 2 2 1 1 1 2 1 1 1 2 2 3 2 2 2 3 3 3 3 3 3 4 4
0 1 1 1 0 1 1 1 1 1 1 2 2 2 1 2 2 2 1 2 1 1 1 1 1 2 2 2 2 2 2 2 3 3 3 3 3 3 3 4 4 4 4
1 1 1 1 1 1 1 1 1 1 1 2 2 2 2 2 3 3 2 2 2 1 1 1 1 2 2 3 3 2 2 4 4 4 4 4 4 4 4 4 4 5 5
1 1 1 1 1 1 1 1 1 1 2 2 2 2 2 2 2 3 3 2 2 2 2 2 2 2 3 4 4 3 4 5 6 5 4 4 4 4 4 5 4 5 5
1 1 1 1 1 1 1 1 1 1 1 2 2 2 2 2 2 3 3 2 2 2 2 2 2 3 4 4 4 5 5 6 7 7 5 4 4 4 4 4 6 5 6
Wind_Direction
163 146 142 143 177 160 189 217 231 264 236 241 239 263 265 249 218 203 221 245 256 244 235 219 222 212 245 240 178 290 218 143 184 287 302 221 64 52 57 168 165 176 184
171 165 155 169 190 191 225 224 227 256 271 281 263 282 281 276 264 225 242 245 255 244 234 221 226 235 227 205 173 184 206 197 174 216 275 296 279 250 153 313 242 215 188
158 154 157 160 175 208 262 262 271 269 276 282 287 271 278 276 277 266 248 246 255 257 230 216 227 227 245 154 180 191 221 238 164 176 236 274 282 287 26 312 330 293 210
153 155 152 159 165 195 213 222 263 282 280 277 273 278 285 293 310 303 286 268 272 273 249 217 206 207 207 203 220 206 189 192 203 168 211 265 263 264 76 300 311 306 292
153 145 142 152 149 154 151 224 283 297 294 287 277 289 330 346 328 322 304 287 281 278 272 233 167 124 102 156 193 177 135 128 163 177 210 260 285 311 278 257 278 292 278
149 144 144 144 134 153 178 193 234 268 272 301 321 334 25 347 342 338 323 300 288 277 281 276 230 206 199 175 157 163 164 169 182 198 239 228 248 242 242 250 240 301 287
144 129 124 120 122 158 205 185 217 243 240 279 310 316 14 352 343 342 329 308 267 244 248 262 274 247 175 215 223 218 221 214 195 190 212 232 241 243 228 240 254 244 245
123 134 136 137 147 185 197 220 233 227 225 237 265 276 255 292 324 330 324 300 273 255 249 245 257 235 252 246 199 204 232 232 219 214 219 233 238 232 216 221 233 256 271
128 136 139 140 159 203 220 227 235 226 239 237 229 240 238 284 301 309 313 288 273 261 261 263 252 240 283 323 164 200 253 275 267 255 249 253 255 260 235 184 244 236 270
138 145 141 164 188 212 226 228 234 234 245 252 245 225 210 227 271 290 301 290 272 266 261 255 254 270 309 270 218 208 228 257 276 302 293 297 288 279 254 210 205 221 246
114 131 136 160 203 204 205 241 230 225 241 265 271 269 255 230 254 284 307 306 302 278 265 259 258 256 274 254 247 236 249 260 241 231 244 260 272 264 262 250 233 211 221
118 143 144 152 235 210 198 237 234 217 235 261 280 297 319 117 253 273 297 304 314 297 272 267 271 280 265 261 257 265 275 292 259 241 235 236 241 247 254 262 265 261 245
101 130 139 130 75 49 243 226 231 226 239 272 282 286 298 325 356 293 282 290 298 301 295 270 278 286 286 265 262 270 263 246 248 248 250 250 241 237 249 277 286 285 284
157 166 143 135 127 199 279 249 232 222 229 256 279 298 310 333 352 337 307 288 285 289 283 275 275 274 267 271 273 262 244 231 228 240 251 261 270 256 243 241 251 248 264
199 192 168 159 140 68 22 0 330 311 242 237 260 268 287 301 312 340 339 326 327 329 324 300 295 297 263 269 262 246 233 234 260 272 265 262 262 264 262 263 252 247 249
208 213 189 171 161 153 147 15 9 342 358 1 327 309 322 294 287 311 322 324 330 330 324 291 278 273 265 253 254 266 250 234 242 248 248 246 249 254 260 265 266 249 246
251 214 188 184 189 194 199 186 282 347 358 349 337 340 320 272 274 295 300 317 316 317 305 281 272 266 264 261 252 259 268 258 245 246 252 259 259 260 263 267 271 272 264
296 251 188 191 205 225 224 229 219 225 281 311 313 292 269 262 271 286 287 314 307 278 262 273 265 254 248 249 253 259 269 279 259 252 260 272 274 274 273 272 269 270 267
311 174 150 191 216 242 247 236 223 223 237 282 318 314 286 287 299 308 316 278 268 273 271 282 282 276 273 275 276 278 272 272 280 264 260 271 268 268 276 279 277 277 274
11 1 351 171 202 251 258 269 272 241 247 265 284 307 336 344 311 289 280 280 282 290 289 293 307 308 296 281 276 276 278 276 278 276 270 265 264 259 260 267 272 272 269
47 13 321 284 228 252 270 273 282 281 275 290 298 299 307 283 267 268 267 279 282 284 286 280 288 295 292 302 300 298 294 286 274 274 281 277 274 273 265 258 262 266 272
264 240 260 270 290 302 312 296 293 298 307 310 317 316 289 299 291 294 289 285 287 297 302 305 306 296 266 264 286 293 290 293 299 295 287 282 282 276 276 272 270 272 274
281 290 304 303 252 300 300 303 313 317 317 313 318 322 298 294 299 298 301 303 299 311 324 328 312 322 342 338 318 295 298 299 298 297 294 289 285 281 278 275 274 276 276
270 265 268 279 278 255 263 289 305 319 319 320 326 329 329 323 324 330 328 323 333 332 339 331 312 310 320 320 314 321 335 324 312 298 284 280 284 283 281 278 274 275 274
287 286 287 284 286 278 283 297 312 315 314 317 320 325 332 333 328 333 332 326 329 326 321 314 313 327 327 318 317 317 319 318 316 314 297 274 268 270 273 274 272 273 273
266 271 275 273 286 283 270 273 298 314 314 314 321 333 339 340 333 329 332 335 329 322 320 319 326 325 315 313 314 315 310 306 306 306 299 278 269 268 269 269 274 271 272
Height
1521 1521 1522 1522 1522 1522 1523 1522 1522 1522 1522 1522 1522 1521 1521 1521 1521 1521 1520 1520 1521 1521 1522 1522 1522 1523 1523 1524 1524 1524 1524 1525 1524 1524 1524 1524 1524 1523 1522 1522 1522 1521 1521
1518 1519 1519 1519 1520 1520 1520 1520 1520 1520 1520 1520 1520 1519 1519 1519 1519 1519 1519 1518 1519 1519 1519 1520 1520 1521 1521 1521 1522 1522 1522 1523 1523 1522 1522 1522 1522 1521 1521 1520 1520 1520 1520
1516 1516 1516 1517 1517 1517 1518 1518 1518 1518 1518 1518 1518 1517 1517 1517 1517 1517 1517 1517 1517 1517 1517 1518 1518 1518 1518 1519 1519 1520 1520 1520 1520 1520 1520 1520 1520 1520 1519 1519 1518 1518 1518
1514 1514 1514 1514 1514 1515 1515 1515 1515 1516 1515 1515 1515 1515 1515 1515 1514 1515 1515 1515 1514 1515 1515 1515 1515 1516 1516 1516 1517 1517 1517 1518 1518 1518 1518 1518 1518 1518 1518 1517 1516 1516 1516
1511 1511 1511 1512 1512 1512 1512 1512 1513 1513 1513 1513 1513 1512 1512 1512 1512 1512 1512 1512 1512 1512 1512 1513 1513 1513 1513 1514 1514 1514 1514 1515 1515 1515 1515 1515 1515 1515 1515 1515 1514 1514 1514
1509 1509 1509 1509 1509 1509 1509 1510 1510 1510 1510 1510 1510 1510 1510 1509 1509 1509 1509 1509 1509 1509 1510 1510 1510 1510 1511 1511 1511 1511 1512 1512 1512 1512 1512 1512 1512 1513 1513 1513 1513 1512 1511
1506 1506 1506 1506 1506 1506 1507 1507 1507 1507 1508 1508 1508 1507 1507 1507 1507 1507 1507 1507 1507 1507 1507 1507 1507 1507 1507 1508 1508 1508 1509 1509 1510 1510 1510 1510 1510 1510 1510 1510 1510 1510 1510
1503 1504 1504 1503 1503 1504 1504 1504 1504 1504 1505 1505 1505 1505 1505 1504 1504 1504 1504 1503 1503 1503 1504 1504 1504 1504 1504 1505 1505 1505 1506 1506 1507 1507 1507 1507 1508 1508 1508 1508 1508 1507 1508
1501 1501 1500 1501 1501 1501 1501 1501 1501 1501 1502 1502 1502 1502 1502 1501 1501 1501 1501 1500 1500 1500 1500 1500 1501 1501 1501 1501 1502 1502 1502 1503 1504 1504 1504 1505 1505 1505 1505 1505 1505 1504 1504
1498 1498 1498 1498 1498 1498 1498 1498 1498 1498 1499 1499 1499 1499 1499 1498 1498 1498 1497 1496 1496 1496 1496 1497 1497 1497 1498 1498 1498 1498 1498 1499 1499 1500 1500 1501 1501 1501 1501 1502 1502 1502 1501
1496 1496 1495 1495 1495 1495 1495 1495 1495 1495 1496 1496 1496 1495 1495 1495 1495 1494 1494 1493 1492 1492 1492 1493 1493 1494 1494 1494 1494 1494 1494 1495 1495 1496 1496 1496 1497 1497 1497 1498 1498 1498 1498
1493 1493 1492 1493 1493 1493 1493 1493 1493 1493 1492 1492 1492 1492 1492 1491 1491 1490 1490 1489 1489 1489 1488 1489 1489 1489 1490 1490 1490 1491 1491 1492 1492 1492 1492 1492 1492 1492 1493 1493 1494 1494 1494
1490 1490 1489 1490 1490 1490 1490 1490 1490 1490 1489 1489 1489 1488 1488 1487 1487 1487 1486 1486 1485 1485 1484 1485 1485 1485 1485 1485 1486 1486 1487 1487 1487 1488 1488 1488 1488 1488 1488 1488 1489 1489 1490
1487 1487 1487 1487 1487 1487 1487 1487 1487 1486 1486 1486 1486 1485 1484 1484 1483 1483 1482 1482 1481 1480 1480 1480 1480 1481 1481 1481 1481 1482 1482 1482 1483 1483 1483 1484 1484 1484 1484 1484 1484 1484 1484
1484 1484 1484 1484 1484 1484 1483 1483 1483 1483 1483 1483 1482 1482 1481 1480 1480 1480 1479 1478 1477 1476 1476 1476 1476 1476 1476 1476 1476 1477 1477 1478 1478 1478 1478 1478 1479 1479 1479 1479 1479 1479 1479
1481 1481 1481 1481 1481 1481 1480 1480 1480 1481 1480 1480 1479 1479 1478 1477 1477 1476 1475 1474 1474 1473 1473 1472 1471 1471 1471 1471 1471 1472 1472 1473 1473 1473 1473 1473 1474 1474 1474 1474 1474 1474 1474
1478 1478 1478 1478 1478 1477 1477 1477 1476 1476 1476 1476 1475 1475 1474 1474 1473 1472 1471 1471 1470 1470 1469 1468 1467 1467 1467 1468 1468 1468 1468 1468 1469 1469 1468 1469 1469 1469 1469 1469 1469 1469 1469
1475 1475 1475 1474 1474 1474 1474 1474 1473 1473 1472 1472 1472 1471 1471 1470 1470 1469 1468 1467 1466 1466 1465 1464 1464 1464 1463 1464 1463 1463 1463 1464 1464 1464 1464 1464 1464 1464 1464 1464 1464 1464 1464
1472 1472 1472 1472 1471 1471 1472 1471 1470 1470 1470 1469 1468 1468 1467 1467 1466 1465 1464 1463 1463 1462 1462 1461 1461 1460 1459 1459 1459 1459 1459 1459 1459 1459 1459 1459 1459 1459 1459 1459 1459 1459 1459
1469 1469 1469 1469 1468 1468 1469 1469 1468 1467 1467 1466 1465 1464 1464 1463 1462 1461 1460 1459 1459 1458 1458 1457 1456 1456 1455 1455 1455 1455 1454 1454 1454 1454 1454 1454 1454 1454 1453 1453 1453 1453 1453
1466 1466 1466 1466 1466 1466 1466 1465 1465 1465 1464 1463 1463 1462 1461 1460 1459 1458 1457 1456 1455 1455 1454 1453 1452 1452 1451 1451 1450 1450 1450 1450 1449 1449 1449 1448 1448 1448 1448 1448 1448 1448 1448
1464 1463 1463 1463 1463 1463 1463 1462 1462 1462 1461 1461 1460 1459 1458 1457 1457 1455 1454 1453 1452 1451 1451 1450 1449 1448 1447 1447 1446 1446 1445 1445 1445 1444 1444 1443 1443 1443 1443 1443 1443 1443 1443
1461 1461 1461 1461 1460 1460 1460 1460 1459 1459 1459 1458 1457 1456 1455 1454 1453 1452 1451 1450 1448 1447 1446 1445 1444 1444 1443 1443 1442 1442 1441 1440 1440 1439 1438 1438 1437 1437 1437 1437 1437 1437 1437
1459 1458 1458 1458 1458 1457 1457 1457 1457 1456 1456 1455 1454 1453 1452 1451 1450 1449 1447 1446 1445 1443 1442 1441 1440 1440 1439 1438 1437 1437 1436 1435 1435 1434 1433 1432 1432 1432 1432 1431 1431 1431 1432
1456 1455 1455 1455 1455 1454 1454 1454 1453 1453 1453 1452 1451 1450 1449 1448 1446 1445 1444 1442 1441 1440 1438 1437 1436 1435 1435 1434 1433 1432 1431 1430 1429 1428 1428 1427 1426 1426 1426 1426 1425 1425 1426
1452 1452 1452 1452 1451 1451 1451 1450 1450 1450 1449 1449 1448 1447 1446 1444 1443 1442 1440 1439 1438 1436 1435 1434 1433 1432 1430 1429 1428 1427 1426 1425 1424 1423 1422 1421 1421 1420 1420 1420 1420 1420 1420